星链-34976 (STARLINK-34976)

导读

STARLINK-34976是美国SpaceX星链(Starlink)星座的成员卫星,于2025年8月14日发射入轨。星链星座旨在通过低轨卫星组网,为全球尤其是基础设施匮乏区域提供高速、低延迟的宽带互联网服务,支持远程通信、高清流媒体、在线交互等应用。该卫星延续了星链小型化设计理念,部署在近地轨道,助力星座扩容与服务覆盖优化,进一步推动SpaceX全球互联的战略布局,延续了星链星座持续组网扩张的节奏。

基本信息
目录编号:
65209
目录名称:
STARLINK-34976
国际标识:
2025-176M
轨道中心:
EARTH
卫星名称:
星链-34976
卫星全名:
星链-34976 (STARLINK-34976)
卫星状态:
在轨 (已飞行386 天)
发射日期:
2025-08-14 UTC
国别 :
美国 (US)
星等 :
--
轨道信息
数据来源 国际轨道数据
星历时间: 2026-09-04T03:37:05+0800
10小时前
查看轨道信息
半长轴: 6840.806km
偏心率: 0.0000637
轨道倾角: 53.161°
近地点辐角 98.241°
升交点赤经 41.719°
平近点角 261.867°
近地点: 462.233km
远地点: 463.105km
周期: 93.847分钟
每日圈数: 15.344118
详细信息
固有亮度:
5
最大亮度:
2.5
卫星平台:
Starlink V1.0
覆盖范围:
全球
运营商:
太空探索技术公司
运营商所在国:
美国
制造商(研发单位):
太空探索技术公司
制造商所在国:
美国
使用方式:
暂无
卫星简介
Starlink 计划是 SpaceX 推出的全球卫星互联网项目,通过发射低轨道卫星,为全球尤其是偏远地区提供高速、低延迟的互联网服务。自 2019 年起,Starlink 已部署数千颗卫星,旨在缩小全球数字鸿沟,推动互联网普及。该项目还为军事、航空等行业提供通信支持,带来广泛经济效益。
2D轨道图
3D轨道图
轨道高度分析图
轨道倾角分析图
轨道综合分析图
查看轨道综合分析图
交会数据列表
事件ID 空间交会对象 最接近时刻(TCA) 交会距离 交会风险概率(CRP) 交会风险指数(CRI) 操作
CDM_260905-102105-084906-520921
2026-09-05T
10:21:58+0000
1.131 km
极远距离
7.99356E-6 低风险 0.53
CDM_260905-045305-084906-520921
2026-09-05T
04:53:42+0000
1.142 km
极远距离
7.74709E-6 低风险 0.53
CDM_260829-022306-487506-520922
REAL (64875)
2026-08-29T
02:23:17+0000
2.143 km
极远距离
2.233489E-6 低风险 0.42
CDM_260905-031905-084906-520921
2026-09-05T
03:19:54+0000
1.730 km
极远距离
2.061519E-6 低风险 0.41
CDM_260904-100906-265606-520921
2026-09-04T
10:09:34+0000
2.576 km
极远距离
1.289609E-6 低风险 0.37
CDM_260903-184905-382506-520922
2026-09-03T
18:49:13+0000
2.861 km
极远距离
1.273755E-6 低风险 0.37
CDM_260905-115505-084906-520921
2026-09-05T
11:55:46+0000
2.125 km
极远距离
1.236358E-6 低风险 0.37
CDM_260903-144104-941406-520921
2026-09-03T
14:41:11+0000
2.688 km
极远距离
1.182333E-6 低风险 0.36
CDM_260905-114506-003406-520921
2026-09-05T
11:45:42+0000
2.841 km
极远距离
9.642809E-7 极低风险 0.35
CDM_260903-025006-202706-520922
2026-09-03T
02:50:06+0000
2.383 km
极远距离
6.168539E-7 极低风险 0.31